Weather in Bol'shie Mosty

Ukraine / Lviv District     50°14′20″N   24°08′45″E
temp.,
°C
wind,
m/s
gust,
m/s
humid.,
%
clouds,
%
prec.,
mm/h
press.,
hPa
HPBL,
m
26 january, tue
tue2623:00−1wnw81396100 0.8 998761
02:000wnw81497100 2.7 999904
05:00−1wnw101695100 2.6 1001936
08:00−1wnw91693100 3.7 1003881
11:00−1w91485100 0.1 1006935
14:000w81385100 0.1 10071066
17:00−1w71386100 0.1 1009829
20:00−3w6129275 0.1 1010447
27 january, wed
wed2723:00−3w5139122 0.0 1011387
02:00−4wsw5119213 0.0 1011316
05:00−5w499445 0.0 1011252
08:00−3w499373 0.0 1012375
11:00−2w4793100 0.0 1012482
14:00−1wnw4789100 0.2 1011728
17:00−2nw3592100 0.1 1010118
20:00−3nw3897100 0.1 1011257
28 january, thu
thu2823:00−3nw4996100 0.2 1011366
02:00−3nw4896100 0.4 1010333
05:00−4nw379697 0.1 1009263
08:00−5nw489695 0.3 1009251
11:00−2nw369584 0.1 1008410
14:00−1wnw469089 0.2 1006601
17:00−3wsw349360 0.0 100381
20:00−3wsw5119362 0.1 1003329
29 january, fri
fri2923:00−4w410919 0.0 1002257
02:00−4wsw499533 0.0 1000267
05:00−5w389427 0.0 999207
08:00−5wsw4119351 0.0 998304
11:00−2w711871 0.0 998766
14:00−1w7108349 0.0 997853
17:00−2wnw5985100 0.0 998717
20:00−3w4888100 0.1 999576
30 january, sat
sat3023:00−5w5109198 0.0 1000323
02:00−5w5109397 0.0 1001324
05:00−6w599494 0.0 1001258
08:00−5w5109497 0.0 1001288
11:00−3w589197 0.1 1002635
14:00−2wnw688799 0.3 1002833
17:00−4w5118899 0.2 1003534
20:00−5w5108993 0.2 1005303